Wetbulb
66.18 70.69 71.24 71.06 71.62 71.88 72.29 72.40 73.26 73.79 74.34 74.84 75.59 75.86 76.31 77.06 77.17 75.64 75.48 76.02 74.72 75.11 75.12 76.04 77.82 77.74 77.22 77.69 77.63 77.35 77.32 76.30 75.78
66.55 70.04 70.99 70.71 71.73 72.21 72.55 72.89 73.36 74.04 74.55 75.29 75.57 75.63 76.16 76.58 76.99 76.42 75.66 76.49 76.54 75.52 76.88 76.12 77.98 77.28 76.99 77.05 78.00 78.03 78.37 76.50 76.51
66.52 68.50 70.58 71.47 71.09 72.21 72.91 73.50 73.87 74.59 74.83 75.19 75.79 75.98 75.85 75.98 76.38 76.78 76.76 76.80 76.55 76.55 76.31 77.42 77.41 78.08 77.79 77.09 77.78 78.58 78.48 76.55 77.36
58.93 62.25 65.75 66.40 69.78 71.72 72.62 73.66 73.84 73.98 74.44 74.89 75.35 75.83 76.07 75.92 75.85 76.11 76.71 76.32 76.58 76.93 76.87 77.41 77.91 78.04 78.18 77.61 77.22 77.96 78.64 77.69 77.04
54.01 56.11 57.54 59.10 60.04 60.43 66.55 72.18 73.02 73.57 74.30 74.27 75.04 75.71 76.08 75.54 75.75 76.01 75.60 75.93 76.29 76.98 76.79 77.25 78.03 78.76 78.23 78.21 77.82 78.31 77.95 76.72 76.53
50.98 52.06 52.35 52.44 52.92 54.22 57.23 62.95 65.95 71.74 73.17 73.86 73.91 74.70 74.90 74.70 74.60 74.96 75.41 75.60 76.26 76.38 76.54 76.84 77.09 77.60 77.99 78.06 77.91 78.39 78.59 77.57 76.96
49.55 50.51 51.23 51.03 51.05 53.09 54.96 56.69 58.49 64.99 69.96 72.99 73.74 74.33 74.18 74.34 74.08 74.51 75.28 75.85 76.29 76.14 76.51 76.27 76.60 77.15 77.63 77.81 77.10 77.76 78.05 78.26 77.40
49.41 49.25 50.03 50.92 50.49 51.08 53.39 53.77 54.87 59.18 64.85 68.29 72.01 72.61 73.82 74.13 74.85 75.39 75.49 75.74 76.32 76.50 76.36 76.20 76.39 76.28 76.74 77.38 77.21 76.30 77.37 78.14 78.10
52.61 51.81 50.53 51.18 52.13 51.82 51.51 52.64 53.31 55.32 57.90 64.22 67.51 71.39 71.99 73.22 75.37 75.63 75.52 75.66 75.28 76.31 76.40 76.44 76.44 75.77 75.53 75.57 75.22 69.38 68.22 74.35 77.62
52.23 51.98 52.77 53.28 51.29 51.24 53.10 53.96 55.59 53.83 55.92 61.18 63.18 65.03 71.31 72.73 73.19 74.63 75.37 75.90 75.75 75.24 75.10 76.35 76.70 76.04 76.00 76.07 76.38 66.05 65.16 68.55 75.87
51.29 51.62 52.13 53.13 53.91 54.13 53.79 54.35 54.18 56.54 56.85 57.85 60.01 62.40 66.57 70.69 72.25 73.14 74.32 75.35 74.99 75.62 75.69 75.48 76.11 76.41 77.31 77.21 76.62 65.38 63.71 65.83 75.50
51.25 51.71 52.55 53.12 54.20 54.96 56.74 57.54 55.96 55.33 54.36 54.06 55.54 58.77 62.10 66.70 67.50 72.21 72.86 73.71 74.90 74.60 74.97 75.29 75.30 75.62 76.56 77.13 77.46 63.07 62.70 66.09 74.55
51.35 52.33 52.88 52.88 53.60 54.65 55.98 57.49 57.89 57.19 57.23 55.13 53.79 55.18 58.32 62.02 67.71 68.04 70.22 73.27 75.35 76.98 75.70 75.19 75.05 75.39 76.19 72.13 76.53 65.37 60.28 65.09 73.67
51.69 51.88 52.15 52.98 53.45 53.87 55.61 57.03 57.10 56.69 57.77 57.84 57.68 56.74 57.33 59.93 64.99 67.11 66.48 70.10 74.85 74.77 76.05 76.61 75.95 75.03 76.24 76.43 75.06 75.07 59.49 58.57 73.53
50.35 50.74 51.36 51.99 51.97 52.98 54.87 56.17 56.16 55.90 56.33 58.15 58.73 58.19 56.01 56.67 59.45 64.58 64.74 68.49 67.86 72.97 75.90 75.80 75.65 76.53 75.20 75.84 76.74 66.59 62.46 57.55 59.45
49.26 49.61 49.74 50.12 49.66 50.28 52.15 54.42 55.35 54.48 56.12 57.29 57.42 57.58 58.43 56.85 59.23 62.41 65.35 66.81 68.04 66.84 72.33 73.22 75.13 75.67 73.91 74.37 75.73 76.78 61.31 57.55 57.23
48.42 49.13 48.81 49.49 48.17 48.64 49.53 52.20 53.47 54.53 55.65 56.43 56.24 55.89 57.27 58.71 56.31 58.79 63.12 63.73 65.53 66.85 66.26 70.38 71.95 72.87 74.51 75.53 75.06 75.79 77.07 74.12 68.80
48.95 49.58 49.28 48.60 47.63 47.10 48.53 50.53 50.81 51.59 53.24 54.05 53.74 54.95 55.85 57.50 59.10 59.30 61.16 63.27 64.19 66.18 66.96 66.04 70.35 72.77 74.17 73.96 73.66 74.53 69.47 70.92 76.89
48.88 49.07 48.05 47.18 48.84 47.45 47.54 48.84 49.55 51.49 51.93 50.87 51.23 52.70 54.43 56.04 58.21 59.21 60.21 61.00 61.93 56.89 55.52 54.57 52.98 51.76 57.21 71.13 63.18 55.25 55.63 53.14 54.04
48.92 47.72 47.27 47.73 47.14 46.43 47.47 47.30 47.02 49.03 51.43 49.57 49.78 49.40 52.20 54.57 54.23 58.80 59.70 60.16 59.99 59.88 61.62 51.48 50.01 49.50 49.87 50.21 56.68 54.02 49.14 47.51 49.87
MSLP
1008.04 1008.28 1008.79 1009.62 1010.47 1011.30 1012.14 1013.07 1014.03 1014.80 1015.65 1016.57 1017.29 1017.70 1018.17 1018.61 1019.03 1019.10 1019.29 1019.37 1018.91 1019.22 1018.96 1019.19 1019.74 1020.52 1020.70 1020.85 1021.06 1021.21 1021.53 1021.47 1021.44
1008.57 1008.35 1008.83 1009.45 1010.26 1011.09 1011.73 1012.69 1013.58 1014.45 1015.13 1015.93 1016.54 1016.99 1017.67 1018.16 1018.60 1018.89 1018.71 1019.10 1019.35 1019.22 1019.18 1018.74 1019.57 1020.03 1020.31 1020.56 1020.92 1021.00 1021.35 1021.03 1021.40
1010.59 1009.82 1009.81 1009.87 1010.48 1011.08 1011.63 1012.34 1013.17 1014.07 1014.65 1015.24 1015.77 1016.36 1016.94 1017.39 1017.87 1018.44 1018.70 1018.99 1019.25 1019.12 1018.91 1019.11 1019.01 1019.71 1019.95 1020.35 1020.61 1020.93 1020.97 1020.89 1021.23
1014.05 1013.32 1012.54 1012.47 1011.85 1011.79 1011.83 1012.33 1012.84 1013.46 1014.11 1014.61 1015.21 1015.72 1016.23 1016.65 1017.07 1017.61 1018.22 1018.41 1018.88 1019.10 1019.13 1019.07 1019.22 1019.61 1020.00 1020.22 1020.35 1020.45 1020.83 1020.86 1020.79
1016.27 1015.81 1015.55 1015.55 1015.00 1015.01 1013.99 1013.05 1013.02 1013.17 1013.65 1013.99 1014.42 1014.99 1015.72 1016.10 1016.53 1017.03 1017.41 1017.87 1018.08 1018.62 1018.84 1018.81 1019.00 1019.45 1019.67 1020.01 1019.96 1020.21 1020.49 1020.64 1020.46
1017.81 1017.69 1017.41 1017.39 1017.19 1017.35 1016.96 1016.41 1015.61 1013.86 1013.60 1013.51 1013.85 1014.97 1015.43 1015.96 1016.15 1016.55 1016.77 1017.12 1017.62 1017.93 1018.39 1018.59 1018.59 1018.88 1019.43 1019.64 1019.83 1019.79 1019.99 1020.23 1020.35
1018.61 1018.79 1018.86 1019.02 1019.13 1019.03 1018.88 1018.44 1017.81 1016.63 1015.63 1014.55 1013.93 1014.00 1014.87 1015.33 1015.91 1016.06 1016.08 1016.45 1016.97 1017.37 1017.79 1018.16 1018.26 1018.48 1018.73 1019.15 1019.29 1019.41 1019.67 1019.83 1019.92
1018.73 1019.16 1019.38 1019.55 1019.81 1020.02 1020.00 1019.93 1019.49 1018.85 1017.84 1016.96 1016.14 1015.35 1014.60 1014.81 1015.40 1015.66 1015.86 1016.04 1016.41 1016.75 1017.16 1017.50 1017.83 1017.94 1018.16 1018.48 1018.67 1018.76 1019.05 1019.29 1019.40
1018.73 1019.19 1019.61 1019.94 1019.99 1020.08 1020.11 1019.97 1019.98 1019.69 1018.92 1017.89 1017.43 1016.54 1015.83 1015.30 1014.70 1015.03 1015.41 1015.81 1016.08 1016.22 1016.55 1016.83 1017.14 1017.37 1017.48 1017.75 1017.91 1018.00 1018.48 1018.79 1018.75
1019.25 1019.63 1019.84 1019.83 1019.95 1020.18 1020.27 1020.15 1019.65 1019.43 1019.16 1018.60 1018.14 1017.45 1016.30 1015.70 1015.44 1014.91 1014.97 1015.26 1015.51 1015.75 1016.07 1016.13 1016.31 1016.53 1016.70 1016.91 1017.25 1017.50 1017.94 1018.31 1018.47
1019.79 1020.08 1020.17 1020.13 1019.96 1019.91 1020.02 1020.10 1020.05 1019.88 1019.64 1019.18 1018.53 1017.73 1016.99 1016.12 1015.49 1015.01 1014.92 1015.06 1015.13 1015.21 1015.41 1015.47 1015.53 1015.63 1015.83 1016.01 1016.26 1016.77 1017.18 1017.66 1017.95
1020.25 1020.36 1020.41 1020.41 1020.36 1020.21 1019.99 1019.72 1019.78 1019.55 1019.52 1019.49 1018.98 1018.41 1017.84 1017.18 1016.79 1015.41 1014.62 1014.67 1014.76 1014.96 1014.99 1014.89 1014.82 1014.92 1015.05 1015.19 1015.30 1015.68 1016.25 1016.86 1017.12
1020.46 1020.62 1020.55 1020.54 1020.61 1020.42 1019.92 1019.80 1019.63 1019.35 1018.99 1019.22 1019.18 1018.85 1018.36 1017.78 1016.81 1016.27 1013.89 1014.68 1014.49 1014.71 1014.77 1014.53 1014.29 1013.99 1014.13 1014.36 1014.40 1014.79 1015.25 1015.79 1015.93
1020.85 1020.86 1020.93 1021.01 1020.53 1020.27 1020.02 1019.94 1019.90 1019.62 1019.26 1018.85 1018.99 1019.10 1018.40 1017.59 1016.57 1015.42 1014.97 1015.13 1014.59 1014.29 1014.15 1013.92 1013.54 1013.50 1013.36 1013.41 1013.50 1013.91 1014.25 1014.82 1015.05
1021.08 1021.03 1021.00 1021.06 1020.88 1020.53 1020.23 1020.05 1019.83 1019.50 1019.28 1019.09 1018.91 1018.46 1018.37 1018.03 1017.06 1015.88 1015.57 1015.43 1014.88 1013.80 1013.38 1013.25 1012.78 1012.77 1012.61 1012.43 1012.59 1012.87 1013.29 1013.73 1014.18
1021.32 1021.43 1021.51 1021.59 1021.48 1021.28 1020.97 1020.35 1019.91 1019.51 1019.22 1019.19 1018.87 1018.39 1017.78 1017.41 1017.24 1016.29 1015.67 1015.17 1014.21 1013.79 1012.88 1012.47 1012.31 1012.20 1011.65 1011.23 1011.32 1011.31 1011.98 1012.67 1013.07
1021.46 1021.47 1021.66 1021.71 1021.69 1021.33 1021.02 1020.73 1020.29 1019.64 1019.21 1018.99 1018.70 1018.21 1017.61 1016.65 1016.21 1015.65 1014.81 1014.26 1013.33 1013.08 1012.85 1011.55 1010.98 1011.21 1011.30 1010.67 1010.41 1010.37 1010.10 1011.07 1012.19
1021.25 1021.37 1021.49 1021.73 1021.67 1021.48 1020.97 1020.64 1020.29 1020.03 1019.57 1019.03 1018.43 1017.83 1017.11 1016.38 1015.52 1014.84 1014.03 1013.66 1013.00 1012.27 1012.03 1012.08 1010.94 1010.69 1010.14 1010.16 1009.70 1009.27 1009.42 1009.41 1009.25
1021.34 1021.26 1021.59 1021.66 1021.35 1021.43 1021.16 1020.44 1019.94 1019.68 1019.59 1019.37 1018.56 1017.61 1016.72 1015.75 1014.87 1014.19 1013.56 1013.07 1012.45 1011.75 1011.51 1011.37 1011.09 1011.27 1011.44 1010.33 1009.41 1009.49 1009.58 1009.42 1009.82
1020.69 1020.83 1021.08 1020.98 1021.06 1021.30 1020.73 1020.31 1019.90 1019.60 1019.03 1018.94 1018.36 1017.61 1016.93 1015.90 1015.39 1014.17 1013.17 1012.83 1012.48 1011.51 1010.51 1010.19 1010.07 1010.38 1010.17 1010.10 1009.86 1009.41 1009.38 1009.62 1010.03
Wind_Speed
15 19 19 19 19 19 19 18 17 16 16 15 16 16 16 13 13 9 9 10 7 7 6 6 9 9 9 7 7 7 6 7 7
2 15 16 17 18 18 19 19 18 17 15 15 15 17 14 14 13 14 10 10 8 8 6 5 8 9 9 8 7 8 8 6 6
14 4 10 13 15 16 16 17 17 17 17 15 15 15 14 13 14 13 12 10 10 10 8 9 8 10 10 9 9 8 8 6 8
17 21 18 14 8 11 11 13 15 16 16 16 14 14 14 14 14 15 13 12 12 11 11 10 10 10 10 11 10 10 9 7 6
16 17 17 18 18 19 15 7 12 14 15 16 15 13 13 14 13 13 14 14 14 12 12 12 11 10 11 11 11 11 10 10 8
14 16 18 18 18 16 15 15 18 8 10 12 12 11 12 13 13 14 15 14 14 13 13 13 13 11 10 10 11 12 12 11 10
14 15 16 15 13 13 13 16 15 16 15 11 9 10 11 13 14 15 16 15 14 14 14 14 14 13 12 11 11 12 12 12 12
13 15 16 15 14 11 10 10 12 13 14 13 12 12 10 13 12 14 14 14 14 14 14 14 15 15 14 13 12 11 14 13 12
12 13 12 14 15 14 13 10 9 10 12 12 12 10 9 14 11 12 13 13 14 14 15 15 15 15 16 16 13 13 11 12 12
10 12 14 14 11 11 13 14 13 11 11 13 12 12 13 8 12 11 12 12 13 14 16 16 16 17 16 16 16 12 13 15 15
10 12 13 13 13 12 11 10 10 12 12 13 13 12 13 14 8 10 10 9 12 14 14 15 15 16 17 16 15 14 16 16 17
11 12 12 11 12 14 13 13 9 8 8 10 12 11 14 12 15 9 6 12 11 11 12 14 15 15 17 16 16 15 18 15 17
13 13 13 13 14 13 12 12 13 14 12 7 10 12 15 14 13 13 10 13 11 11 12 13 12 15 16 17 18 14 17 18 14
12 12 12 14 14 13 12 11 12 13 13 13 11 12 14 15 16 12 11 12 12 9 13 13 13 13 14 16 16 17 17 19 17
12 13 13 14 13 13 14 14 12 13 13 13 14 13 9 12 15 10 11 12 11 13 11 14 14 13 13 14 16 16 14 19 22
11 12 12 13 13 14 15 15 14 15 14 15 15 16 17 9 14 15 12 12 12 9 13 12 12 10 13 13 12 13 19 18 21
9 10 11 12 13 14 14 14 15 17 16 15 16 17 17 16 10 14 14 12 11 10 9 13 10 11 11 12 11 13 13 13 12
10 10 10 11 11 13 16 16 15 14 17 18 18 17 17 16 14 14 13 13 13 12 9 11 11 10 10 12 14 13 14 12 12
11 13 13 12 13 13 16 17 17 16 15 16 18 18 14 13 13 12 13 11 13 15 17 16 18 20 14 15 15 11 8 9 14
10 11 13 14 13 13 17 16 16 18 17 13 15 15 17 13 13 14 13 12 12 14 13 17 19 22 21 20 23 18 10 8 10
Wind_Direction
211 195 197 193 198 198 194 197 196 196 192 201 205 206 212 208 212 216 220 211 242 211 209 191 165 184 201 204 188 194 189 217 222
173 189 202 193 191 202 196 198 197 199 199 201 205 210 209 211 209 224 216 242 214 223 231 204 179 192 201 200 200 196 180 220 211
19 171 190 195 199 192 200 202 200 203 202 204 208 210 208 209 212 215 221 220 232 246 229 234 188 208 195 198 200 205 202 191 194
29 32 31 12 2 195 204 208 205 206 210 211 212 210 216 215 211 212 214 215 226 231 237 226 222 211 212 206 205 203 206 230 203
40 40 41 40 34 24 8 218 218 207 214 214 215 219 215 219 221 218 215 219 213 227 230 231 227 214 216 217 211 207 205 212 207
54 51 45 39 35 29 22 17 9 327 218 227 212 203 223 223 220 221 224 220 221 214 225 227 228 219 220 220 221 211 210 214 218
54 52 50 47 39 27 17 21 12 4 3 340 283 221 222 226 223 227 228 222 219 219 219 228 226 226 223 223 227 219 222 213 219
63 44 38 37 35 29 20 15 12 3 359 1 339 318 264 222 232 232 237 235 223 220 221 222 232 229 228 227 228 225 221 225 218
48 42 33 26 20 19 19 15 9 348 351 348 340 336 295 292 250 231 231 229 235 233 224 225 229 230 227 228 230 223 203 229 230
34 21 13 10 15 13 6 359 355 1 348 345 345 338 325 287 271 262 243 240 233 231 234 233 226 230 227 225 228 214 200 202 235
22 6 359 356 353 353 357 350 352 347 350 346 341 339 343 344 274 253 260 248 247 245 240 237 233 230 230 227 225 210 201 200 225
355 348 344 345 340 339 332 340 342 334 349 347 341 337 338 332 329 313 286 263 257 246 245 242 237 236 235 229 231 201 202 197 229
340 339 337 334 334 321 327 336 332 333 331 350 334 336 323 319 313 313 358 297 274 259 248 243 247 240 236 236 238 209 202 200 227
334 335 332 332 322 321 322 327 326 319 323 326 335 326 322 321 316 326 325 304 280 257 249 244 237 241 247 241 234 236 197 197 225
339 336 335 336 327 321 319 320 317 316 317 328 324 316 316 316 313 306 306 292 295 292 261 247 242 243 240 242 237 228 209 197 212
341 339 337 331 323 319 310 310 309 305 308 315 315 314 309 302 304 294 285 280 283 291 278 250 243 238 241 239 245 235 208 194 204
333 339 337 332 326 316 311 310 307 304 304 305 304 302 299 297 287 294 295 291 280 271 278 277 244 241 244 251 242 247 243 202 206
332 326 328 328 317 317 311 307 300 291 299 303 297 292 291 289 283 285 278 280 280 275 258 278 300 289 249 237 248 244 248 252 223
327 325 325 308 309 311 311 303 296 296 294 291 290 291 284 281 287 278 274 275 283 257 240 256 271 271 265 282 275 287 290 245 243
324 326 324 318 322 304 302 302 295 293 292 283 279 281 285 277 283 281 275 274 272 278 271 233 239 244 251 246 255 280 282 266 269